Total_Precipitation_Accumulation
0.02 0.06 0.16 0.22 0.23 0.15 0.11 0.09 0.07 0.08 0.10 0.11 0.12 0.12 0.11 0.10 0.09 0.10 0.12 0.14 0.21 0.27 0.31 0.35 0.44 0.48 0.46 0.37 0.25 0.14 0.09 0.07 0.05 0.04 0.04 0.07 0.10 0.12 0.11 0.10 0.12 0.18 0.23
0.03 0.06 0.14 0.22 0.24 0.17 0.12 0.09 0.07 0.07 0.08 0.10 0.12 0.13 0.13 0.11 0.12 0.15 0.17 0.19 0.23 0.27 0.33 0.41 0.46 0.45 0.40 0.31 0.18 0.09 0.04 0.02 0.01 0.01 0.01 0.02 0.05 0.08 0.07 0.07 0.10 0.20 0.26
0.05 0.07 0.13 0.22 0.24 0.19 0.14 0.09 0.06 0.06 0.07 0.09 0.12 0.13 0.13 0.13 0.14 0.19 0.22 0.22 0.24 0.25 0.29 0.35 0.35 0.29 0.27 0.21 0.11 0.05 0.03 0.02 0.01 0.01 0.02 0.04 0.06 0.11 0.11 0.10 0.14 0.20 0.24
0.07 0.08 0.13 0.22 0.25 0.21 0.16 0.09 0.06 0.06 0.07 0.10 0.12 0.14 0.16 0.16 0.18 0.21 0.22 0.21 0.21 0.23 0.26 0.22 0.16 0.13 0.13 0.11 0.07 0.04 0.03 0.02 0.02 0.02 0.05 0.07 0.09 0.17 0.18 0.16 0.16 0.16 0.18
0.11 0.12 0.17 0.22 0.26 0.24 0.20 0.14 0.10 0.09 0.08 0.10 0.12 0.16 0.18 0.18 0.19 0.20 0.20 0.17 0.16 0.17 0.14 0.09 0.06 0.06 0.06 0.05 0.04 0.03 0.02 0.01 0.02 0.03 0.05 0.08 0.13 0.25 0.22 0.18 0.19 0.20 0.18
0.16 0.19 0.25 0.28 0.29 0.28 0.24 0.18 0.16 0.14 0.10 0.10 0.12 0.14 0.18 0.20 0.17 0.17 0.15 0.11 0.10 0.09 0.08 0.05 0.04 0.04 0.03 0.02 0.02 0.02 0.02 0.01 0.01 0.03 0.04 0.07 0.12 0.25 0.21 0.17 0.17 0.18 0.19
0.18 0.24 0.32 0.36 0.35 0.32 0.28 0.25 0.21 0.20 0.15 0.12 0.11 0.13 0.17 0.20 0.17 0.14 0.10 0.08 0.07 0.07 0.06 0.05 0.03 0.02 0.01 0.01 0.01 0.01 0.01 0.01 0.01 0.02 0.04 0.07 0.13 0.24 0.21 0.15 0.14 0.15 0.16
0.18 0.30 0.40 0.47 0.43 0.36 0.29 0.27 0.26 0.25 0.22 0.17 0.15 0.16 0.18 0.19 0.17 0.12 0.10 0.08 0.07 0.07 0.06 0.05 0.03 0.02 0.01 0.01 0.01 0.01 0.01 0.01 0.01 0.02 0.04 0.05 0.09 0.13 0.11 0.09 0.10 0.11 0.11
0.26 0.36 0.46 0.55 0.54 0.48 0.42 0.34 0.29 0.27 0.27 0.25 0.23 0.21 0.18 0.17 0.15 0.11 0.10 0.09 0.08 0.07 0.06 0.05 0.04 0.03 0.02 0.01 0.01 0.01 0.00 0.00 0.01 0.01 0.02 0.02 0.04 0.07 0.07 0.09 0.11 0.12 0.13
0.45 0.47 0.54 0.61 0.59 0.52 0.47 0.42 0.35 0.30 0.28 0.29 0.28 0.23 0.20 0.17 0.15 0.12 0.09 0.09 0.07 0.05 0.06 0.05 0.03 0.03 0.02 0.01 0.01 0.00 0.00 0.01 0.01 0.01 0.01 0.01 0.03 0.04 0.05 0.08 0.10 0.12 0.14
0.73 0.66 0.63 0.66 0.65 0.58 0.51 0.46 0.41 0.34 0.30 0.29 0.28 0.25 0.22 0.20 0.15 0.11 0.07 0.07 0.06 0.05 0.04 0.04 0.03 0.02 0.01 0.01 0.00 0.00 0.00 0.01 0.00 0.00 0.01 0.01 0.02 0.04 0.05 0.07 0.09 0.10 0.11
0.87 0.83 0.75 0.70 0.66 0.65 0.59 0.51 0.47 0.39 0.32 0.31 0.27 0.26 0.25 0.21 0.16 0.09 0.08 0.08 0.07 0.05 0.04 0.04 0.02 0.01 0.00 0.00 0.00 0.00 0.00 0.00 0.00 0.00 0.01 0.01 0.02 0.03 0.05 0.06 0.06 0.07 0.07
0.92 0.97 0.94 0.84 0.72 0.65 0.65 0.54 0.48 0.41 0.35 0.32 0.27 0.25 0.24 0.24 0.19 0.14 0.10 0.11 0.09 0.06 0.06 0.05 0.03 0.00 0.00 0.00 0.00 0.00 0.00 0.00 0.00 0.00 0.00 0.00 0.01 0.02 0.04 0.05 0.05 0.06 0.06
1.10 1.04 1.06 1.00 0.87 0.70 0.64 0.58 0.51 0.44 0.38 0.34 0.28 0.24 0.23 0.21 0.17 0.13 0.10 0.08 0.07 0.05 0.06 0.04 0.02 0.01 0.00 0.00 0.00 0.00 0.00 0.00 0.00 0.00 0.00 0.00 0.00 0.01 0.03 0.04 0.04 0.06 0.07
1.27 1.19 1.21 1.12 0.97 0.83 0.71 0.62 0.55 0.51 0.41 0.35 0.33 0.28 0.22 0.17 0.13 0.12 0.10 0.08 0.07 0.05 0.05 0.04 0.02 0.01 0.01 0.00 0.00 0.00 0.00 0.00 0.00 0.00 0.00 0.00 0.00 0.01 0.01 0.02 0.03 0.05 0.08
1.48 1.43 1.44 1.33 1.17 0.97 0.83 0.69 0.57 0.55 0.49 0.44 0.39 0.32 0.27 0.21 0.15 0.11 0.10 0.08 0.07 0.05 0.04 0.03 0.03 0.02 0.01 0.01 0.01 0.01 0.01 0.01 0.01 0.01 0.01 0.01 0.01 0.00 0.00 0.01 0.03 0.06 0.10
1.54 1.61 1.62 1.55 1.45 1.19 1.00 0.88 0.71 0.61 0.57 0.49 0.45 0.39 0.32 0.27 0.21 0.15 0.11 0.09 0.08 0.07 0.06 0.05 0.04 0.03 0.02 0.01 0.01 0.01 0.01 0.01 0.01 0.01 0.01 0.01 0.01 0.01 0.00 0.01 0.03 0.06 0.09
1.67 1.66 1.78 1.78 1.66 1.49 1.27 1.10 0.93 0.76 0.67 0.54 0.47 0.43 0.36 0.31 0.25 0.20 0.14 0.11 0.10 0.09 0.07 0.06 0.05 0.03 0.02 0.02 0.02 0.02 0.01 0.01 0.00 0.01 0.01 0.01 0.01 0.01 0.01 0.01 0.02 0.03 0.06
1.75 1.79 1.83 1.91 1.90 1.85 1.73 1.54 1.31 1.05 0.90 0.76 0.62 0.52 0.43 0.36 0.29 0.23 0.17 0.13 0.12 0.11 0.08 0.06 0.04 0.03 0.02 0.02 0.02 0.01 0.01 0.01 0.00 0.00 0.00 0.00 0.00 0.00 0.00 0.00 0.01 0.02 0.03
1.95 2.03 1.94 2.01 2.13 2.19 2.22 2.04 1.83 1.48 1.17 0.95 0.76 0.65 0.58 0.49 0.40 0.31 0.24 0.19 0.16 0.15 0.13 0.10 0.07 0.05 0.03 0.03 0.03 0.02 0.01 0.01 0.01 0.00 0.00 0.00 0.01 0.01 0.00 0.01 0.01 0.01 0.02
1.95 2.15 2.12 2.05 2.18 2.40 2.23 1.98 1.78 1.56 1.37 1.17 0.97 0.84 0.74 0.65 0.58 0.44 0.33 0.27 0.23 0.20 0.18 0.15 0.14 0.11 0.08 0.07 0.06 0.05 0.02 0.02 0.02 0.01 0.01 0.02 0.01 0.01 0.01 0.01 0.01 0.02 0.02
1.78 2.06 2.08 2.13 2.24 2.40 2.26 2.10 2.03 1.98 1.78 1.57 1.43 1.12 0.88 0.75 0.67 0.59 0.47 0.37 0.32 0.29 0.26 0.24 0.22 0.20 0.16 0.15 0.15 0.14 0.08 0.03 0.02 0.02 0.03 0.03 0.03 0.03 0.02 0.02 0.02 0.03 0.03
1.37 1.76 1.91 1.94 2.07 2.20 2.37 2.61 2.57 2.43 2.11 1.68 1.39 1.27 1.14 1.04 0.93 0.80 0.73 0.59 0.47 0.40 0.34 0.33 0.31 0.28 0.26 0.22 0.22 0.27 0.26 0.15 0.09 0.05 0.04 0.04 0.05 0.05 0.05 0.05 0.05 0.04 0.05
1.04 1.37 1.70 1.88 1.99 2.01 2.10 2.32 2.43 2.27 1.92 1.59 1.40 1.38 1.40 1.31 1.22 1.13 0.99 0.86 0.70 0.57 0.48 0.47 0.44 0.41 0.41 0.38 0.35 0.32 0.33 0.32 0.32 0.22 0.10 0.08 0.08 0.08 0.08 0.09 0.08 0.08 0.08
0.85 1.14 1.47 1.72 1.93 1.92 1.85 1.93 2.13 2.22 2.11 1.94 1.76 1.58 1.47 1.41 1.30 1.25 1.15 1.04 0.91 0.78 0.70 0.67 0.62 0.59 0.57 0.54 0.51 0.47 0.45 0.41 0.42 0.46 0.30 0.16 0.15 0.14 0.15 0.15 0.15 0.16 0.16
0.70 0.86 1.16 1.43 1.72 1.87 1.82 1.84 1.89 1.94 2.04 1.96 1.79 1.70 1.56 1.50 1.41 1.27 1.21 1.15 1.06 0.98 0.90 0.85 0.84 0.78 0.72 0.68 0.65 0.62 0.63 0.60 0.55 0.62 0.59 0.40 0.33 0.27 0.27 0.27 0.27 0.26 0.27